Location: Invercargill
(46.4000°S, 168.3500°E)
Time: 18:45:56
(UTC+13:00)

Cosmos 2322 - Pass Details

Date: 04 October 2021
Orbit: 840 x 855 km, 71.0° (Epoch: 17 October)

Event Time Altitude Azimuth Distance (km) Brightness Sun altitude
Rises 23:48:46 0° 214° (SW) 3,436 7.9 -33.9°
Reaches altitude 10° 23:51:26 10° 223° (SW) 2,495 6.9 -34.1°
Enters shadow 23:55:23 31° 262° (W) 1,467 5.1 -34.5°
